User: anonymous   Login
Location: Unspecified
(0.0000°N, 0.0000°E)
Time: 05:34:00
(UTC+02:00)
Language:

ATLAS V CENTAUR R/B - Orbit

View from above orbital plane
View from above orbital plane
View from above satellite
View from above satellite

Ground track
Ground track

The orbit data is extracted from the following two-line orbital elements,

1 27500U 02038B   16149.63016262 +.00005452 +00000-0 +10095-2 0  9997
2 27500 018.0016 266.5403 6819763 290.6759 012.0357 02.88802688114707
Epoch (UTC): 28 May 2016 15:07:26
Eccentricity: 0.6819763
inclination: 18.0016°
perigee height: 246 km
apogee height: 28655 km
right ascension of ascending node: 266.5403°
argument of perigee: 290.6759°
revolutions per day: 2.88802688
mean anomaly at epoch: 12.0357°
orbit number at epoch: 11470

The dashed part of the orbit path shows where the satellite is in the earth's shadow,  

DLR